THY9NK LTFM-LTAU

Flight info

Callsign THY9NK
Flight time 0h 59m
Altitude 35000
Route VICEN1E/36 VICEN UT57 VEVUD UT341 BAG UL614 MARTI UW76 SARIZ
Aircraft A321/M-SDE3FGHIRWY/LB1

Departure

Time 2026-04-25 22:18
Airport İstanbul Airport (LTFM)

Arrival

Time 2026-04-25 23:18
Airport Kayseri Erkilet International Airport (LTAU)
Time Latitude Longitude Altitude Speed Heading
2026-04-25 21:34 41.25977 28.74955 334 ft 0 kts 254°
2026-04-25 22:06 41.25977 28.74957 334 ft 2 kts 254°
2026-04-25 22:06 41.25986 28.74990 330 ft 4 kts 243°
2026-04-25 22:06 41.26000 28.75020 330 ft 4 kts 230°
2026-04-25 22:06 41.26019 28.75045 331 ft 4 kts 211°
2026-04-25 22:07 41.26042 28.75057 331 ft 4 kts 179°
2026-04-25 22:07 41.26054 28.75056 331 ft 0 kts 161°
2026-04-25 22:11 41.26053 28.75056 334 ft 0 kts 161°
2026-04-25 22:11 41.26051 28.75057 330 ft 1 kts 161°
2026-04-25 22:12 41.26041 28.75062 330 ft 2 kts 161°
2026-04-25 22:12 41.26017 28.75073 332 ft 5 kts 161°
2026-04-25 22:12 41.25969 28.75094 331 ft 9 kts 161°
2026-04-25 22:12 41.25938 28.75135 332 ft 11 kts 109°
2026-04-25 22:13 41.25936 28.75294 334 ft 15 kts 90°
2026-04-25 22:13 41.25979 28.75396 334 ft 13 kts
2026-04-25 22:13 41.26069 28.75396 331 ft 13 kts 359°
2026-04-25 22:13 41.26156 28.75395 331 ft 10 kts 359°
2026-04-25 22:14 41.26179 28.75394 332 ft 1 kts 359°
2026-04-25 22:14 41.26189 28.75394 332 ft 2 kts 359°
2026-04-25 22:14 41.26208 28.75393 330 ft 3 kts 359°
2026-04-25 22:14 41.26234 28.75399 333 ft 4 kts 19°
2026-04-25 22:15 41.26252 28.75428 331 ft 5 kts 75°
2026-04-25 22:15 41.26250 28.75475 334 ft 6 kts 94°
2026-04-25 22:15 41.26249 28.75495 334 ft 1 kts 91°
2026-04-25 22:16 41.26249 28.75535 334 ft 3 kts 91°
2026-04-25 22:16 41.26248 28.75571 334 ft 5 kts 90°
2026-04-25 22:16 41.26249 28.75619 334 ft 6 kts 90°
2026-04-25 22:16 41.26268 28.75662 333 ft 5 kts 27°
2026-04-25 22:17 41.26299 28.75667 330 ft 0 kts
2026-04-25 22:17 41.26302 28.75667 330 ft 7 kts
2026-04-25 22:17 41.26620 28.75664 333 ft 82 kts 359°
2026-04-25 22:18 41.27415 28.75645 331 ft 144 kts 359°
2026-04-25 22:18 41.28575 28.75613 452 ft 180 kts 359°
2026-04-25 22:18 41.29802 28.75653 1165 ft 177 kts 12°
2026-04-25 22:18 41.30885 28.76478 1659 ft 187 kts 39°
2026-04-25 22:19 41.32000 28.77557 1863 ft 210 kts 34°
2026-04-25 22:19 41.33299 28.78651 2023 ft 233 kts 31°
2026-04-25 22:19 41.34764 28.79815 2365 ft 254 kts 30°
2026-04-25 22:19 41.36311 28.81008 3076 ft 259 kts 30°
2026-04-25 22:20 41.37715 28.82509 3827 ft 263 kts 53°
2026-04-25 22:20 41.38371 28.84771 4571 ft 268 kts 84°
2026-04-25 22:20 41.38425 28.87263 5334 ft 270 kts 88°
2026-04-25 22:20 41.38410 28.89778 6053 ft 275 kts 96°
2026-04-25 22:21 41.37792 28.92186 6710 ft 280 kts 124°
2026-04-25 22:21 41.36401 28.93979 7351 ft 282 kts 152°
2026-04-25 22:21 41.34536 28.94743 8020 ft 283 kts 178°
2026-04-25 22:21 41.32561 28.94796 8724 ft 285 kts 181°
2026-04-25 22:22 41.30565 28.94816 9443 ft 288 kts 181°
2026-04-25 22:22 41.28553 28.94836 10130 ft 291 kts 181°
2026-04-25 22:22 41.26497 28.94860 10375 ft 310 kts 181°
2026-04-25 22:22 41.24262 28.94846 10517 ft 332 kts 183°
2026-04-25 22:23 41.21892 28.94690 10782 ft 347 kts 185°
2026-04-25 22:23 41.19428 28.94733 11318 ft 354 kts 171°
2026-04-25 22:23 41.17127 28.95807 11884 ft 360 kts 150°
2026-04-25 22:23 41.15203 28.97937 12471 ft 364 kts 129°
2026-04-25 22:24 41.13915 29.00826 13077 ft 368 kts 115°
2026-04-25 22:24 41.13170 29.02910 13511 ft 370 kts 115°
2026-04-25 22:24 41.12116 29.05873 14097 ft 373 kts 115°
2026-04-25 22:24 41.10642 29.10009 14843 ft 376 kts 115°
2026-04-25 22:25 41.09514 29.13158 15422 ft 379 kts 115°
2026-04-25 22:25 41.08373 29.16323 15992 ft 382 kts 115°
2026-04-25 22:25 41.07220 29.19520 16568 ft 385 kts 115°
2026-04-25 22:25 41.06061 29.22729 17140 ft 388 kts 115°
2026-04-25 22:26 41.04889 29.25972 17696 ft 391 kts 115°
2026-04-25 22:26 41.04093 29.28170 18075 ft 393 kts 115°
2026-04-25 22:26 41.02908 29.31442 18591 ft 396 kts 115°
2026-04-25 22:26 41.01713 29.34741 19075 ft 399 kts 115°
2026-04-25 22:27 41.00508 29.38062 19577 ft 402 kts 115°
2026-04-25 22:27 40.99309 29.41373 20051 ft 404 kts 115°
2026-04-25 22:27 40.98077 29.44774 20569 ft 407 kts 115°
2026-04-25 22:27 40.96861 29.48123 21053 ft 410 kts 115°
2026-04-25 22:28 40.95622 29.51523 21520 ft 412 kts 115°
2026-04-25 22:28 40.94373 29.54949 21988 ft 415 kts 115°
2026-04-25 22:28 40.93111 29.58403 22445 ft 417 kts 115°
2026-04-25 22:28 40.91845 29.61860 22883 ft 420 kts 115°
2026-04-25 22:29 40.90565 29.65350 23322 ft 423 kts 115°
2026-04-25 22:29 40.89277 29.68859 23729 ft 425 kts 115°
2026-04-25 22:29 40.87987 29.72376 24094 ft 428 kts 115°
2026-04-25 22:30 40.85372 29.79482 24838 ft 431 kts 115°
2026-04-25 22:30 40.84060 29.83053 25200 ft 433 kts 115°
2026-04-25 22:30 40.82742 29.86632 25559 ft 435 kts 115°
2026-04-25 22:30 40.81861 29.89022 25798 ft 436 kts 115°
2026-04-25 22:31 40.80074 29.93852 26272 ft 439 kts 115°
2026-04-25 22:31 40.78730 29.97478 26622 ft 441 kts 115°
2026-04-25 22:31 40.77380 30.01120 26972 ft 443 kts 115°
2026-04-25 22:31 40.76025 30.04777 27311 ft 444 kts 115°
2026-04-25 22:32 40.74662 30.08444 27655 ft 446 kts 115°
2026-04-25 22:32 40.73288 30.12129 27985 ft 448 kts 115°
2026-04-25 22:32 40.71911 30.15811 28300 ft 450 kts 115°
2026-04-25 22:32 40.70525 30.19516 28630 ft 452 kts 115°
2026-04-25 22:33 40.69130 30.23241 28950 ft 453 kts 115°
2026-04-25 22:33 40.67733 30.26970 29282 ft 455 kts 115°
2026-04-25 22:33 40.66185 30.30628 29605 ft 459 kts 122°
2026-04-25 22:33 40.64281 30.34014 29922 ft 461 kts 126°
2026-04-25 22:34 40.62320 30.37344 30292 ft 461 kts 126°
2026-04-25 22:34 40.60357 30.40679 30677 ft 460 kts 126°
2026-04-25 22:34 40.58398 30.44004 31059 ft 458 kts 126°
2026-04-25 22:34 40.56447 30.47314 31450 ft 457 kts 126°
2026-04-25 22:35 40.54675 30.50701 31800 ft 455 kts 118°
2026-04-25 22:35 40.53298 30.54432 32125 ft 453 kts 110°
2026-04-25 22:35 40.52369 30.58379 32466 ft 452 kts 102°
2026-04-25 22:35 40.51671 30.62401 32796 ft 451 kts 102°
2026-04-25 22:36 40.50962 30.66415 33135 ft 451 kts 102°
2026-04-25 22:36 40.50243 30.70422 33470 ft 450 kts 102°
2026-04-25 22:36 40.49512 30.74422 33785 ft 450 kts 104°
2026-04-25 22:36 40.48687 30.78390 34094 ft 450 kts 106°
2026-04-25 22:37 40.47769 30.82322 34340 ft 451 kts 107°
2026-04-25 22:37 40.46796 30.86242 34574 ft 452 kts 108°
2026-04-25 22:37 40.45806 30.90155 34797 ft 452 kts 108°
2026-04-25 22:37 40.44822 30.94080 35008 ft 454 kts 108°
2026-04-25 22:38 40.42907 31.01965 35070 ft 453 kts 107°
2026-04-25 22:38 40.41041 31.09845 35074 ft 452 kts 107°
2026-04-25 22:39 40.39165 31.17726 35077 ft 453 kts 107°
2026-04-25 22:39 40.37523 31.25688 35082 ft 453 kts 102°
2026-04-25 22:40 40.36222 31.33762 35086 ft 453 kts 102°
2026-04-25 22:40 40.34908 31.41853 35089 ft 454 kts 102°
2026-04-25 22:41 40.33579 31.49946 35094 ft 454 kts 102°
2026-04-25 22:41 40.32243 31.58045 35093 ft 455 kts 102°
2026-04-25 22:42 40.30902 31.66154 35096 ft 456 kts 102°
2026-04-25 22:42 40.29560 31.74270 35088 ft 456 kts 102°
2026-04-25 22:43 40.28211 31.82382 35089 ft 456 kts 102°
2026-04-25 22:43 40.26855 31.90454 35086 ft 457 kts 102°
2026-04-25 22:44 40.25299 31.98587 35088 ft 458 kts 106°
2026-04-25 22:44 40.23512 32.06524 35088 ft 459 kts 107°
2026-04-25 22:45 40.21684 32.14535 35089 ft 460 kts 107°
2026-04-25 22:45 40.19917 32.22578 35090 ft 461 kts 106°
2026-04-25 22:46 40.18176 32.30653 35097 ft 462 kts 106°
2026-04-25 22:46 40.16410 32.38729 35098 ft 462 kts 107°
2026-04-25 22:47 40.14618 32.46813 35103 ft 463 kts 107°
2026-04-25 22:47 40.12817 32.54896 35096 ft 464 kts 107°
2026-04-25 22:48 40.11019 32.62994 35093 ft 464 kts 107°
2026-04-25 22:48 40.09213 32.71107 35085 ft 465 kts 107°
2026-04-25 22:49 40.07403 32.79218 35082 ft 466 kts 107°
2026-04-25 22:49 40.05362 32.87249 35078 ft 467 kts 112°
2026-04-25 22:50 40.02965 32.95130 35085 ft 467 kts 114°
2026-04-25 22:50 40.00521 33.02998 35083 ft 468 kts 113°
2026-04-25 22:51 39.98150 33.10917 35085 ft 470 kts 112°
2026-04-25 22:51 39.95819 33.18888 35084 ft 471 kts 112°
2026-04-25 22:52 39.93471 33.26864 35082 ft 472 kts 113°
2026-04-25 22:52 39.91493 33.33487 35077 ft 472 kts 113°
2026-04-25 22:53 39.88691 33.42814 35074 ft 474 kts 113°
2026-04-25 22:53 39.86298 33.50814 35064 ft 475 kts 113°
2026-04-25 22:54 39.83912 33.58775 35061 ft 476 kts 114°
2026-04-25 22:54 39.82007 33.67044 35058 ft 479 kts 107°
2026-04-25 22:55 39.80312 33.75431 35053 ft 480 kts 107°
2026-04-25 22:55 39.78605 33.83835 35052 ft 482 kts 107°
2026-04-25 22:56 39.76648 33.92149 35054 ft 481 kts 113°
2026-04-25 22:56 39.74328 34.00310 35053 ft 482 kts 113°
2026-04-25 22:57 39.72003 34.08505 35052 ft 484 kts 113°
2026-04-25 22:57 39.69664 34.16721 35051 ft 486 kts 114°
2026-04-25 22:58 39.67319 34.24954 35053 ft 487 kts 114°
2026-04-25 22:58 39.64953 34.33210 35053 ft 489 kts 114°
2026-04-25 22:59 39.62574 34.41496 35003 ft 492 kts 114°
2026-04-25 22:59 39.61368 34.45682 34139 ft 501 kts 115°
2026-04-25 22:59 39.60134 34.49950 33085 ft 509 kts 114°
2026-04-25 23:00 39.58890 34.54255 32279 ft 511 kts 115°
2026-04-25 23:00 39.57638 34.58584 31467 ft 514 kts 114°
2026-04-25 23:00 39.56387 34.62908 30935 ft 510 kts 114°
2026-04-25 23:00 39.55144 34.67204 30423 ft 507 kts 114°
2026-04-25 23:01 39.53910 34.71459 29729 ft 506 kts 114°
2026-04-25 23:01 39.52677 34.75698 29325 ft 498 kts 114°
2026-04-25 23:01 39.51460 34.79878 28674 ft 496 kts 114°
2026-04-25 23:01 39.50252 34.84018 28180 ft 489 kts 114°
2026-04-25 23:02 39.49043 34.88144 27633 ft 485 kts 114°
2026-04-25 23:02 39.47855 34.92205 27008 ft 483 kts 114°
2026-04-25 23:02 39.46674 34.96236 26630 ft 475 kts 114°
2026-04-25 23:02 39.45510 35.00180 26038 ft 473 kts 114°
2026-04-25 23:03 39.44345 35.04117 25501 ft 470 kts 114°
2026-04-25 23:03 39.43165 35.08111 25099 ft 463 kts 114°
2026-04-25 23:03 39.42015 35.11936 24528 ft 460 kts 117°
2026-04-25 23:03 39.40455 35.15473 24050 ft 449 kts 131°
2026-04-25 23:04 39.38356 35.18374 23570 ft 437 kts 145°
2026-04-25 23:04 39.36716 35.19925 23165 ft 429 kts 154°
2026-04-25 23:04 39.33224 35.22070 22551 ft 416 kts 163°
2026-04-25 23:04 39.30572 35.23519 22084 ft 411 kts 163°
2026-04-25 23:05 39.27946 35.24951 21615 ft 409 kts 162°
2026-04-25 23:05 39.25337 35.26370 21141 ft 406 kts 162°
2026-04-25 23:05 39.22736 35.27781 20643 ft 404 kts 162°
2026-04-25 23:05 39.20157 35.29177 20193 ft 401 kts 162°
2026-04-25 23:06 39.17597 35.30560 19791 ft 397 kts 162°
2026-04-25 23:06 39.15050 35.31936 19276 ft 396 kts 162°
2026-04-25 23:06 39.12539 35.33297 18913 ft 390 kts 162°
2026-04-25 23:06 39.10036 35.34656 18436 ft 388 kts 161°
2026-04-25 23:07 39.07577 35.36063 17924 ft 388 kts 155°
2026-04-25 23:07 39.05387 35.38105 17407 ft 392 kts 140°
2026-04-25 23:07 39.03679 35.40851 16873 ft 394 kts 123°
2026-04-25 23:07 39.02593 35.44065 16160 ft 392 kts 108°
2026-04-25 23:08 39.01821 35.47383 15667 ft 382 kts 108°
2026-04-25 23:08 39.01056 35.50622 15188 ft 377 kts 108°
2026-04-25 23:08 39.00283 35.53840 14708 ft 375 kts 109°
2026-04-25 23:08 38.99508 35.57025 14227 ft 374 kts 109°
2026-04-25 23:09 38.98731 35.60207 13734 ft 373 kts 108°
2026-04-25 23:09 38.97956 35.63387 13234 ft 370 kts 108°
2026-04-25 23:09 38.97190 35.66533 12763 ft 367 kts 108°
2026-04-25 23:09 38.96432 35.69649 12296 ft 364 kts 108°
2026-04-25 23:10 38.95679 35.72742 11835 ft 361 kts 108°
2026-04-25 23:10 38.94932 35.75809 11380 ft 358 kts 108°
2026-04-25 23:10 38.94191 35.78848 10930 ft 355 kts 108°
2026-04-25 23:10 38.93391 35.81841 10472 ft 352 kts 116°
2026-04-25 23:11 38.92047 35.84380 10278 ft 337 kts 136°
2026-04-25 23:11 38.90263 35.86198 10154 ft 320 kts 154°
2026-04-25 23:11 38.88241 35.87223 9889 ft 308 kts 171°
2026-04-25 23:11 38.86143 35.87121 9288 ft 302 kts 202°
2026-04-25 23:12 38.84408 35.85730 8866 ft 292 kts 230°
2026-04-25 23:12 38.83458 35.83564 8470 ft 271 kts 256°
2026-04-25 23:12 38.83018 35.81289 8123 ft 257 kts 257°
2026-04-25 23:12 38.82600 35.79055 7758 ft 257 kts 257°
2026-04-25 23:13 38.82190 35.76854 7418 ft 251 kts 257°
2026-04-25 23:13 38.81922 35.75436 7204 ft 244 kts 257°
2026-04-25 23:13 38.81528 35.73371 6915 ft 235 kts 257°
2026-04-25 23:13 38.81146 35.71349 6667 ft 229 kts 257°
2026-04-25 23:14 38.80792 35.69432 6445 ft 212 kts 257°
2026-04-25 23:14 38.80463 35.67675 6153 ft 195 kts 257°
2026-04-25 23:14 38.80165 35.66081 5957 ft 174 kts 257°
2026-04-25 23:14 38.79891 35.64635 5664 ft 159 kts 257°
2026-04-25 23:15 38.79634 35.63271 5403 ft 157 kts 256°
2026-04-25 23:15 38.79375 35.61897 5209 ft 157 kts 257°
2026-04-25 23:15 38.79118 35.60535 5000 ft 157 kts 256°
2026-04-25 23:15 38.78860 35.59168 4762 ft 158 kts 257°
2026-04-25 23:16 38.78601 35.57806 4538 ft 157 kts 257°
2026-04-25 23:16 38.78346 35.56453 4332 ft 156 kts 257°
2026-04-25 23:16 38.78092 35.55103 4136 ft 156 kts 257°
2026-04-25 23:16 38.77836 35.53764 3913 ft 154 kts 257°
2026-04-25 23:17 38.77589 35.52432 3721 ft 154 kts 259°
2026-04-25 23:17 38.77339 35.51094 3499 ft 155 kts 257°
2026-04-25 23:17 38.77107 35.49862 3464 ft 122 kts 257°
2026-04-25 23:17 38.76951 35.49017 3467 ft 73 kts 256°
2026-04-25 23:18 38.76862 35.48576 3467 ft 32 kts 255°
2026-04-25 23:18 38.76821 35.48409 3467 ft 14 kts 233°
2026-04-25 23:18 38.76761 35.48384 3469 ft 5 kts 175°
2026-04-25 23:18 38.76727 35.48392 3469 ft 6 kts 169°
2026-04-25 23:19 38.76696 35.48425 3468 ft 7 kts 103°
2026-04-25 23:19 38.76694 35.48493 3468 ft 8 kts 82°
2026-04-25 23:19 38.76715 35.48570 3468 ft 10 kts 74°
2026-04-25 23:19 38.76730 35.48650 3468 ft 9 kts 77°
2026-04-25 23:20 38.76746 35.48734 3466 ft 11 kts 77°
2026-04-25 23:20 38.76726 35.48781 3468 ft 6 kts 167°
2026-04-25 23:20 38.76692 35.48788 3467 ft 2 kts 167°
2026-04-25 23:20 38.76681 35.48791 3468 ft 2 kts 167°
2026-04-25 23:21 38.76680 35.48792 3468 ft 0 kts 167°